Regional Weather Roundup
Issued by NWS

Home | Current Version | Previous Version | Graphics & Text | Print | Product List | Glossary Off
Versions: 1 2 3 4 5 6 7 8 9 10 11 12 13 14 15 16 17 18 19 20 21 22 23 24 25 26 27 28 29 30 31 32 33 34 35 36 37 38 39 40 41 42 43 44 45 46 47 48 49 50

000
ASUS45 KCYS 232110
RWRWY

WYOMING REGIONAL WEATHER ROUNDUP
NATIONAL WEATHER SERVICE CHEYENNE WY
300 PM MDT SUN JUL 23 2017

NOTE:  "FAIR" INDICATES FEW OR NO CLOUDS BELOW 12,000 FEET
WITH NO SIGNIFICANT WEATHER AND/OR OBSTRUCTIONS TO VISIBILITY.

WYZ001-232200-
YELLOWSTONE NATIONAL PARK

CITY           SKY/WX    TMP DP  RH WIND       PRES   REMARKS
LK YELLOWSTONE   N/A     74  28  18 VRB3      30.35F
W YELLOWSTONE  NOT AVBL

$$
WYZ002>013-054>058-071-098>099-232200-
NORTHERN WYOMING

CITY           SKY/WX    TMP DP  RH WIND       PRES   REMARKS
JACKSON        SUNNY     81  39  22 SW10      30.25F
CODY           FAIR      88  32  13 E5        30.08F
GREYBULL       FAIR      95  32  11 VRB3      29.98F HX  90
WORLAND        FAIR      94  35  12 VRB5      29.99F
SHERIDAN       FAIR      93  36  13 CALM      30.00F
BUFFALO        FAIR      91  37  15 S8        30.08F
GILLETTE       FAIR      94  38  14 VRB5      30.03F
HULETT         FAIR      91  45  19 S9        30.06F
NEWCASTLE      FAIR      93  34  12 S12G17    30.07F

$$
WYZ014>020-022>026-101>103-232200-
CENTRAL WYOMING

CITY           SKY/WX    TMP DP  RH WIND       PRES   REMARKS
BIG PINEY      FAIR      83  36  18 NW21G30   30.30S
PINEDALE       FAIR      79  30  17 N21G26    30.31S
DUBOIS         FAIR      79  27  14 W21G28    30.26F
LANDER         FAIR      87  37  17 VRB5      30.12F
RIVERTON       FAIR      88  34  14 SE8       30.11F
CASPER         FAIR      94  28   9 SW12G17   30.09F
DOUGLAS        FAIR      94  34  12 VRB6      30.09F

$$
WYZ021-027>030-104>119-232200-
SOUTHERN WYOMING

CITY           SKY/WX    TMP DP  RH WIND       PRES   REMARKS
EVANSTON       FAIR      84  28  13 N12G21    30.27F
KEMMERER         N/A     82  28  14 NW16G25   30.30S
FORT BRIDGER   FAIR      85  24  11 W7        30.29S
ROCK SPRINGS   FAIR      89  18   7 W12       30.22F
RAWLINS        FAIR      90  25   9 SW8       30.22F
SARATOGA       FAIR      88  27  11 NW6       30.26F
LARAMIE        FAIR      81  36  19 E12       30.27F
CHEYENNE       FAIR      87  45  23 S10G22    30.21F
TORRINGTON     FAIR      94  35  12 VRB7      30.05F
PINE BLUFFS    FAIR      90  37  15 S6        30.15F

$$



USA.gov is the U.S. government's official web portal to all federal, state and local government web resources and services.